San Antonio, TX

3:52 PM CST on February 07, 2016 (GMT -0600)
San Antonio International

Weather History for KSAT - September, 2012

Change the Weather History Date:

Friday, September 14, 2012

  Actual Average Record
Temperature  
Mean Temperature 73 °F 80 °F  
Max Temperature 77 °F 91 °F 99 °F (2011)
Min Temperature 68 °F 70 °F 52 °F (1945)
Degree Days  
Heating Degree Days 0 0  
Month to date heating degree days 0 0  
Since 1 July heating degree days 0 0  
Cooling Degree Days 8 15  
Month to date cooling degree days 260 238  
Year to date cooling degree days 3053 2629  
Growing Degree Days 22 (Base 50)    
Moisture  
Dew Point 66 °F    
Average Humidity 85    
Maximum Humidity 100    
Minimum Humidity 69    
Precipitation  
Precipitation 1.22 in 0.10 in 3.39 in (1904)
Month to date precipitation 2.37 1.50  
Year to date precipitation 31.42 22.44  
Snow  
Snow 0.00 in - - ()
Month to date snowfall 0.0  
Since 1 July snowfall 0.0  
Since 1 September snowfall 0.0  
Snow Depth 0.00 in    
Sea Level Pressure  
Sea Level Pressure 30.14 in    
Wind  
Wind Speed 9 mph (North)    
Max Wind Speed 16 mph    
Max Gust Speed 20 mph    
Visibility 9 miles    
Events Rain , Thunderstorm    
T = Trace of Precipitation, MM = Missing Value Source: NWS Daily Summary

Daily Weather History Graph

Daily Weather History Graph

Search for Another Location

Airport or City:

Trip Planner

Search our weather history database for the weather conditions in past years. The results will help you decide how hot, cold, wet, or windy it might be!

Date:

Astronomy

Sep. 14, 2012 Rise Set
Actual Time 7:18 AM CDT 7:39 PM CDT
Civil Twilight 6:54 AM CDT 8:03 PM CDT
Nautical Twilight 6:26 AM CDT 8:31 PM CDT
Astronomical Twilight 5:58 AM CDT 8:59 PM CDT
Moon 5:47 AM CDT (9/14) 6:36 PM CDT (9/14)
Length of Visible Light 13h 09m
Length of Day
12h 21m
Waning Crescent, 2% of the Moon is Illuminated
Sep 14
Waning Crescent
Sep 15
New
Sep 22
First Quarter
Sep 29
Full
Oct 8
Last Quarter

Hourly Weather History & Observations

Time (CDT) Temp. Dew Point Humidity Pressure Visibility Wind Dir Wind Speed Gust Speed Precip Events Conditions
12:14 AM 68.0 °F 68.0 °F 100% 30.17 in 2.5 mi NNW 8.1 mph - 0.19 in Rain , Thunderstorm Heavy Thunderstorms and Rain
12:53 AM 68.0 °F 68.0 °F 100% 30.12 in 1.5 mi Calm Calm - 0.59 in Rain , Thunderstorm Heavy Thunderstorms and Rain
1:53 AM 68.0 °F 68.0 °F 100% 30.11 in 1.5 mi North 5.8 mph - 0.76 in Rain , Thunderstorm Heavy Thunderstorms and Rain
2:28 AM 68.0 °F 68.0 °F 100% 30.17 in 1.5 mi WNW 8.1 mph - 0.19 in Rain , Thunderstorm Thunderstorms and Rain
2:53 AM 68.0 °F 68.0 °F 100% 30.11 in 3.0 mi NNW 5.8 mph - 0.28 in Rain , Thunderstorm Thunderstorms and Rain
3:53 AM 68.0 °F 68.0 °F 100% 30.08 in 7.0 mi North 12.7 mph - 0.19 in Rain , Thunderstorm Thunderstorms and Rain
4:49 AM 68.0 °F 66.2 °F 94% 30.12 in 10.0 mi NNW 8.1 mph - 0.07 in Rain Light Rain
4:53 AM 68.0 °F 66.9 °F 96% 30.08 in 10.0 mi NNW 6.9 mph - 0.07 in Rain Light Rain
5:53 AM 68.0 °F 68.0 °F 100% 30.09 in 10.0 mi NNE 5.8 mph - 0.00 in Rain Light Rain
6:53 AM 68.0 °F 66.9 °F 96% 30.11 in 10.0 mi North 8.1 mph - 0.00 in Rain Light Rain
7:53 AM 68.0 °F 66.2 °F 94% 30.17 in 10.0 mi NNE 9.2 mph - N/A   Overcast
8:31 AM 68.0 °F 66.2 °F 94% 30.18 in 10.0 mi North 6.9 mph - 0.00 in Rain Light Rain
8:53 AM 68.0 °F 66.9 °F 96% 30.14 in 10.0 mi NNE 6.9 mph - 0.00 in   Overcast
9:53 AM 69.1 °F 66.0 °F 90% 30.16 in 10.0 mi North 8.1 mph - 0.00 in   Overcast
10:19 AM 69.8 °F 66.2 °F 88% 30.20 in 10.0 mi North 6.9 mph - N/A   Overcast
10:41 AM 69.8 °F 64.4 °F 83% 30.21 in 10.0 mi North 11.5 mph - N/A   Overcast
10:53 AM 70.0 °F 64.9 °F 84% 30.17 in 10.0 mi North 11.5 mph - N/A   Overcast
11:28 AM 71.6 °F 64.4 °F 78% 30.22 in 10.0 mi North 15.0 mph 18.4 mph N/A   Overcast
11:53 AM 72.0 °F 64.9 °F 78% 30.18 in 10.0 mi North 11.5 mph - N/A   Overcast
12:53 PM 73.0 °F 64.9 °F 76% 30.17 in 10.0 mi North 11.5 mph - N/A   Overcast
1:53 PM 75.0 °F 64.9 °F 71% 30.15 in 10.0 mi North 9.2 mph 16.1 mph N/A   Overcast
2:53 PM 75.0 °F 64.9 °F 71% 30.14 in 10.0 mi NNW 10.4 mph - N/A   Overcast
3:31 PM 75.2 °F 66.2 °F 73% 30.17 in 10.0 mi Variable 6.9 mph - N/A   Overcast
3:53 PM 75.9 °F 66.0 °F 71% 30.12 in 10.0 mi North 9.2 mph - N/A   Overcast
4:53 PM 75.0 °F 66.0 °F 73% 30.12 in 10.0 mi North 6.9 mph - N/A   Overcast
5:53 PM 73.0 °F 64.9 °F 76% 30.11 in 10.0 mi North 10.4 mph - N/A   Overcast
6:53 PM 71.1 °F 64.0 °F 78% 30.12 in 10.0 mi NNW 12.7 mph - 0.00 in   Overcast
7:16 PM 69.8 °F 64.4 °F 83% 30.17 in 10.0 mi North 9.2 mph - 0.00 in Rain Light Rain
7:53 PM 70.0 °F 64.0 °F 81% 30.13 in 10.0 mi North 9.2 mph - 0.00 in   Overcast
8:20 PM 69.8 °F 64.4 °F 83% 30.17 in 10.0 mi North 8.1 mph - N/A   Overcast
8:46 PM 69.8 °F 64.4 °F 83% 30.18 in 10.0 mi North 9.2 mph - N/A   Overcast
8:53 PM 70.0 °F 64.0 °F 81% 30.14 in 10.0 mi North 10.4 mph - N/A   Overcast
9:53 PM 69.1 °F 64.0 °F 84% 30.15 in 10.0 mi NNE 6.9 mph - N/A   Mostly Cloudy
10:53 PM 69.1 °F 64.0 °F 84% 30.16 in 10.0 mi North 6.9 mph - N/A   Mostly Cloudy
11:53 PM 69.1 °F 64.9 °F 87% 30.17 in 10.0 mi NE 4.6 mph - N/A   Mostly Cloudy